Content
SEND FEEDBACK

Daily
Averages
Monthly
Summary
Turkey

CEYHAN, TURKEY


Home > Middle East > Turkey
Elevation: 98 feet     Latitude: 37 00N     Longitude: 035 48E

WEATHER
 
SELECT A DAY
Number of Records: 176,375;   Date Range: 7/1/96 - 8/12/14
 
SHARE

PRINT THIS DATA

[ ← Previous Day ]
WEATHER ALMANAC - FEBRUARY 3, 2013
[ Next Day → ]
[ °C ]   °F
Weather ElementAverageHighLow
Temperature52 °F57.2 °F (1:20 pm)46.4 °F (12:50 am)
Dewpoint50.5 °F55.4 °F (12:50 pm)41 °F (12:50 am)
Humidity94.8 %100 % (3:50 am)64 % (2:00 am)
Barometer30.26 in30.33 in (8:00 pm)30.15 in (12:50 am)
Wind Speed5.1 mph8.1 mph (12:50 am)
Weather ElementAverage
Visibility6 mi
Wind DirectionENE (82 °)

Weather ElementTotal
Precipitation---
Heating Degree Days13.2 (Base 65)
Growing Degree Days1.8 (Base 50)
Averaged from 50 records on February 3, 2013
WEATHER CONDITIONS BREAKOUT
WIND DIRECTION BREAKOUT
WEATHER BY HOUR - FEBRUARY 3, 2013
[ °C ]   °F
Local TimeTemperatureDewpointHumidityBarometerVisibilityWind DirectionWind SpeedGust SpeedPrecipitationEventsConditions
12:50 AM46.4 °F41.0 °F81 %30.15 in6.2 miNE (50°)8.1 mphMostly Cloudy
1:20 AM48.2 °F41.0 °F76 %30.15 in6.2 miNNW (330°)6.9 mphMostly Cloudy
1:50 AM50.0 °F41.0 °F71 %30.15 in6.2 miNorth (10°)3.5 mphMostly Cloudy
2:00 AM50.0 °F42.0 °F64 %30.18 in6.0 miNorth (10°)3.5 mphPartly Cloudy
2:20 AM50.0 °F42.8 °F76 %30.18 in6.2 miWest (280°)4.6 mphRainLight Rain Showers
2:50 AM48.2 °F44.6 °F87 %30.18 in6.2 miENE (70°)5.8 mphRainLight Rain Showers
3:20 AM48.2 °F46.4 °F93 %30.18 in6.2 miNE (40°)5.8 mphMostly Cloudy
3:50 AM48.2 °F48.2 °F100 %30.18 in6.2 miNE (50°)3.5 mphMostly Cloudy
4:20 AM50.0 °F48.2 °F94 %30.18 in6.2 miNE (40°)3.5 mphMostly Cloudy
4:50 AM50.0 °F48.2 °F94 %30.21 in6.2 miNW (320°)3.5 mphMostly Cloudy
5:20 AM48.2 °F48.2 °F100 %30.21 in4.3 miNE (40°)3.5 mphMostly Cloudy
5:50 AM50.0 °F48.2 °F94 %30.21 in4.3 miENE (60°)3.5 mphMostly Cloudy
6:20 AM50.0 °F48.2 °F94 %30.21 in6.2 miNE (40°)5.8 mphMostly Cloudy
6:50 AM50.0 °F48.2 °F94 %30.24 in6.2 miNE (50°)4.6 mphMostly Cloudy
7:20 AM50.0 °F48.2 °F94 %30.24 in6.2 miNNE (30°)6.9 mphMostly Cloudy
7:50 AM50.0 °F48.2 °F94 %30.24 in6.2 miNNE (30°)5.8 mphMostly Cloudy
8:20 AM51.8 °F50.0 °F94 %30.24 in6.2 miENE (60°)4.6 mphMostly Cloudy
8:50 AM51.8 °F51.8 °F100 %30.24 in6.2 miENE (70°)4.6 mphRainLight Rain Showers
9:20 AM51.8 °F51.8 °F100 %30.27 in6.2 miNE (50°)5.8 mphMostly Cloudy
9:50 AM51.8 °F51.8 °F100 %30.27 in4.3 miENE (70°)6.9 mphRainLight Rain Showers
10:20 AM51.8 °F51.8 °F100 %30.27 in6.2 miENE (70°)5.8 mphMostly Cloudy
10:50 AM53.6 °F53.6 °F100 %30.27 in6.2 miNE (50°)6.9 mphMostly Cloudy
11:20 AM53.6 °F53.6 °F100 %30.27 in6.2 miNE (40°)5.8 mphRainLight Rain Showers
11:50 AM53.6 °F53.6 °F100 %30.27 in6.2 miNE (50°)5.8 mphRainLight Rain Showers
12:20 PM53.6 °F53.6 °F100 %30.27 in6.2 miEast (90°)6.9 mphMostly Cloudy
12:50 PM55.4 °F55.4 °F100 %30.27 in6.2 miENE (70°)6.9 mphMostly Cloudy
1:20 PM57.2 °F55.4 °F94 %30.27 in6.2 miENE (70°)4.6 mphMostly Cloudy
1:50 PM57.2 °F53.6 °F88 %30.27 in6.2 miEast (100°)4.6 mphMostly Cloudy
2:00 PM57.0 °F54.0 °F88 %30.27 in6.0 miEast (100°)4.6 mphPartly Cloudy
2:20 PM57.2 °F53.6 °F88 %30.27 in6.2 miENE (60°)4.6 mphMostly Cloudy
2:50 PM57.2 °F55.4 °F94 %30.27 in6.2 miNE (40°)6.9 mphMostly Cloudy
3:20 PM55.4 °F55.4 °F100 %30.27 in6.2 miNE (40°)8.1 mphMostly Cloudy
3:50 PM55.4 °F55.4 °F100 %30.27 in6.2 miNE (40°)5.8 mphMostly Cloudy
4:20 PM55.4 °F55.4 °F100 %30.27 in6.2 miNE (40°)5.8 mphMostly Cloudy
4:50 PM55.4 °F53.6 °F94 %30.27 in6.2 miNE (50°)6.9 mphMostly Cloudy
5:20 PM53.6 °F53.6 °F100 %30.30 in6.2 miNE (50°)4.6 mphMostly Cloudy
5:50 PM53.6 °F53.6 °F100 %30.30 in6.2 miNNE (30°)4.6 mphMostly Cloudy
6:20 PM53.6 °F53.6 °F100 %30.30 in6.2 miNE (50°)4.6 mphMostly Cloudy
6:50 PM53.6 °F53.6 °F100 %30.30 in6.2 miNE (40°)4.6 mphMostly Cloudy
7:20 PM53.6 °F53.6 °F100 %30.30 in6.2 miNE (40°)5.8 mphMostly Cloudy
7:50 PM51.8 °F51.8 °F100 %30.30 in6.2 miNNE (30°)4.6 mphMostly Cloudy
8:00 PM51.0 °F51.0 °F100 %30.33 in6.0 miNNE (30°)4.6 mphPartly Cloudy
8:20 PM51.8 °F51.8 °F100 %30.33 in6.2 miNNE (30°)4.6 mphMostly Cloudy
8:50 PM53.6 °F53.6 °F100 %30.30 in6.2 miNNE (20°)8.1 mphMostly Cloudy
9:20 PM51.8 °F50.0 °F94 %30.33 in6.2 miNE (50°)5.8 mphMostly Cloudy
9:50 PM50.0 °F50.0 °F100 %30.33 in6.2 miENE (60°)3.5 mphMostly Cloudy
10:20 PM50.0 °F50.0 °F100 %30.30 in6.2 miENE (60°)2.3 mphMostly Cloudy
10:50 PM50.0 °F50.0 °F100 %30.30 in6.2 miNorth (360°)2.3 mphMostly Cloudy
11:20 PM48.2 °F48.2 °F100 %30.33 in3.7 miNW (320°)2.3 mphMostly Cloudy
11:50 PM50.0 °F50.0 °F100 %30.33 in3.7 miNW (320°)3.5 mphMostly Cloudy
Hourly data recorded from LTAG, located miles away from Ceyhan, Turkey







STORIES FROM OUR PARTNERS